M I D A S
Marine Information and Data Acquisition System
Tripno 1933 of the Zeeleeuw from 2010-08-06 05:00:25 to 2010-08-06 16:27:48
Back to CruiseResearch ActivitiesStationsMapUnderway DataData graphs

EquipmentUnitsComments
TimeDGPSUTC
LatitudeDGPSDM.mWGS84
LongitudeDGPSDM.mWGS84
SpeedMeteo Stationm/sRelative wind speed
DirectionMeteo StationdegRelative wind direction
TemperatureMeteo Stationdeg CelciusAir temperature
PressureMeteo StationPaAtmospheric pressure
HumidityMeteo Station%Relative humidity
Missing or incorrect values are displayed as -999
Metereological data collected by the RV Zeeleeuw from 2010-08-06 05:01:29 to 2010-08-06 16:32:53
                                                                                    Next 1000 lines
Time Latitude Longitude Speed Direction Temperature Pressure Humidity
2010-08-06 05:01:39 51°13.661 2°55.956 0.9 21 13.1 101530 46
2010-08-06 05:01:44 51°13.662 2°55.953 0.9 19 13.1 101530 46
2010-08-06 05:01:49 51°13.663 2°55.949 0.2 14 13.1 101530 43
2010-08-06 05:01:54 51°13.665 2°55.943 1.2 18 13.1 101530 43
2010-08-06 05:02:00 51°13.668 2°55.936 0.8 32 13.1 101530 43
2010-08-06 05:02:04 51°13.669 2°55.931 1.2 25 13.1 101530 43
2010-08-06 05:02:09 51°13.671 2°55.923 1.5 27 13.1 101530 43
2010-08-06 05:02:14 51°13.674 2°55.915 2.4 40 13.1 101530 43
2010-08-06 05:02:19 51°13.676 2°55.907 2.2 31 13.1 101530 43
2010-08-06 05:02:24 51°13.678 2°55.898 1 75 13.1 101530 43
2010-08-06 05:02:29 51°13.681 2°55.888 0.3 39 13.1 101530 43
2010-08-06 05:02:34 51°13.683 2°55.879 0.1 22 13.1 101530 43
2010-08-06 05:02:39 51°13.685 2°55.87 0.1 36 13.1 101530 43
2010-08-06 05:02:44 51°13.687 2°55.862 -999 78 13.1 101530 43
2010-08-06 05:02:49 51°13.689 2°55.853 -999 35 13.1 101530 44
2010-08-06 05:02:54 51°13.69 2°55.845 -999 83 13.1 101530 44
2010-08-06 05:02:59 51°13.692 2°55.836 1 37 13.1 101530 44
2010-08-06 05:03:04 51°13.693 2°55.828 0.2 36 13.1 101530 44
2010-08-06 05:03:09 51°13.695 2°55.82 1.3 38 13.1 101530 44
2010-08-06 05:03:15 51°13.696 2°55.811 1.7 42 13.1 101530 44
2010-08-06 05:03:19 51°13.697 2°55.805 2.9 41 13.2 101530 45
2010-08-06 05:03:24 51°13.698 2°55.797 3 35 13.2 101530 45
2010-08-06 05:03:29 51°13.699 2°55.79 2.6 35 13.2 101530 45
2010-08-06 05:03:34 51°13.7 2°55.783 2.4 31 13.2 101530 46
2010-08-06 05:03:39 51°13.701 2°55.776 2.3 29 13.2 101530 44
2010-08-06 05:03:44 51°13.702 2°55.77 2.4 33 13.2 101530 44
2010-08-06 05:03:48 51°13.702 2°55.765 2.3 42 13.2 101530 44
2010-08-06 05:03:53 51°13.703 2°55.759 2.3 81 13.2 101530 43
2010-08-06 05:03:58 51°13.703 2°55.754 1.4 23 13.2 101530 46
2010-08-06 05:04:03 51°13.704 2°55.751 1.5 41 13.2 101530 46
2010-08-06 05:04:08 51°13.704 2°55.749 1.4 43 13.2 101530 46
2010-08-06 05:04:12 51°13.704 2°55.749 2.5 44 13.2 101530 46
2010-08-06 05:04:18 51°13.705 2°55.749 2.4 44 13.2 101530 44
2010-08-06 05:04:23 51°13.707 2°55.75 0.5 44 13.2 101530 44
2010-08-06 05:04:27 51°13.707 2°55.751 0.3 30 13.1 101530 43
2010-08-06 05:04:32 51°13.709 2°55.752 0.1 38 13.1 101530 43
2010-08-06 05:04:37 51°13.709 2°55.752 0.8 40 13.1 101530 43
2010-08-06 05:04:42 51°13.709 2°55.751 2.2 80 13.1 101530 46
2010-08-06 05:04:47 51°13.709 2°55.75 2.1 34 13.1 101530 43
2010-08-06 05:04:52 51°13.707 2°55.748 2.9 83 13.1 101530 43
2010-08-06 05:04:56 51°13.706 2°55.746 2 33 13.1 101530 46
2010-08-06 05:05:01 51°13.704 2°55.744 2.9 77 13.1 101530 46
2010-08-06 05:05:07 51°13.701 2°55.741 3 33 13.2 101530 46
2010-08-06 05:05:12 51°13.698 2°55.739 2.5 81 13.2 101530 46
2010-08-06 05:05:18 51°13.695 2°55.736 2.6 33 13.2 101530 46
2010-08-06 05:05:23 51°13.694 2°55.735 3.2 77 13.1 101530 43
2010-08-06 05:05:29 51°13.692 2°55.734 3.2 34 13.2 101530 44
2010-08-06 05:05:34 51°13.692 2°55.733 1.8 81 13.2 101530 44
2010-08-06 05:05:39 51°13.693 2°55.733 3.1 33 13.2 101530 43
2010-08-06 05:05:44 51°13.694 2°55.732 1.9 78 13.2 101530 43
2010-08-06 05:05:49 51°13.696 2°55.732 2.1 35 13.2 101530 44
2010-08-06 05:05:54 51°13.698 2°55.73 1 286 13.2 101530 44
2010-08-06 05:05:59 51°13.701 2°55.728 0.4 255 13.2 101530 46
2010-08-06 05:06:04 51°13.705 2°55.726 0.7 282 13.2 101530 46
2010-08-06 05:06:09 51°13.709 2°55.723 0.6 245 13.2 101540 43
2010-08-06 05:06:14 51°13.714 2°55.719 0.4 282 13.2 101540 43
2010-08-06 05:06:19 51°13.719 2°55.715 0.2 320 13.2 101530 43
2010-08-06 05:06:24 51°13.725 2°55.71 1.9 276 13.2 101530 43
2010-08-06 05:06:28 51°13.729 2°55.706 1.6 39 13.2 101530 45
2010-08-06 05:06:33 51°13.736 2°55.701 1.9 282 13.2 101530 45
2010-08-06 05:06:38 51°13.743 2°55.695 1.6 38 13.2 101530 45
2010-08-06 05:06:43 51°13.75 2°55.689 1.3 282 13.2 101540 44
2010-08-06 05:06:48 51°13.758 2°55.683 1 322 13.2 101530 44
2010-08-06 05:06:52 51°13.764 2°55.678 1.6 279 13.2 101530 44
2010-08-06 05:06:57 51°13.773 2°55.672 1.6 248 13.2 101530 46
2010-08-06 05:07:02 51°13.781 2°55.665 1.2 280 13.2 101530 46
2010-08-06 05:07:08 51°13.792 2°55.657 1.6 33 13.2 101530 43
2010-08-06 05:07:12 51°13.8 2°55.652 2.4 277 13.2 101530 43
2010-08-06 05:07:17 51°13.809 2°55.645 3.4 37 13.2 101530 43
2010-08-06 05:07:22 51°13.819 2°55.639 2.6 285 13.3 101540 47
2010-08-06 05:07:27 51°13.829 2°55.632 2.9 317 13.2 101530 45
2010-08-06 05:07:32 51°13.839 2°55.625 2.8 282 13.2 101530 45
2010-08-06 05:07:36 51°13.847 2°55.619 3.1 247 13.2 101530 46
2010-08-06 05:07:41 51°13.858 2°55.611 2.8 283 13.2 101530 46
2010-08-06 05:07:46 51°13.869 2°55.603 2.7 241 13.3 101530 46
2010-08-06 05:07:51 51°13.88 2°55.595 2.9 284 13.3 101530 46
2010-08-06 05:07:56 51°13.891 2°55.587 4.1 34 13.3 101530 44
2010-08-06 05:08:00 51°13.9 2°55.581 3.4 278 13.3 101530 44
2010-08-06 05:08:06 51°13.913 2°55.57 3.2 31 13.3 101530 44
2010-08-06 05:08:11 51°13.925 2°55.562 3.1 285 13.2 101530 44
2010-08-06 05:08:16 51°13.937 2°55.553 3.2 32 13.2 101530 45
2010-08-06 05:08:20 51°13.946 2°55.546 3.5 283 13.2 101530 45
2010-08-06 05:08:26 51°13.961 2°55.535 3.1 318 13.2 101530 44
2010-08-06 05:08:31 51°13.973 2°55.527 3.8 285 13.2 101530 44
2010-08-06 05:08:36 51°13.985 2°55.517 3.2 37 13.2 101530 44
2010-08-06 05:08:40 51°13.995 2°55.51 3.3 283 13.2 101530 44
2010-08-06 05:08:46 51°14.01 2°55.499 3.6 32 13.2 101530 44
2010-08-06 05:08:51 51°14.022 2°55.49 3.4 285 13.2 101530 44
2010-08-06 05:08:56 51°14.035 2°55.48 4 324 13.2 101530 44
2010-08-06 05:09:01 51°14.047 2°55.471 4.2 284 13.2 101530 44
2010-08-06 05:09:06 51°14.06 2°55.461 2.9 38 13.2 101530 44
2010-08-06 05:09:11 51°14.072 2°55.452 3.6 282 13.2 101530 44
2010-08-06 05:09:16 51°14.085 2°55.443 3.8 318 13.2 101530 46
2010-08-06 05:09:21 51°14.098 2°55.433 3.7 283 13.2 101530 46
2010-08-06 05:09:26 51°14.11 2°55.423 3.9 319 13.2 101530 44
2010-08-06 05:09:31 51°14.123 2°55.413 4.4 284 13.2 101530 44
2010-08-06 05:09:36 51°14.135 2°55.403 3.5 37 13.2 101530 44
2010-08-06 05:09:41 51°14.148 2°55.393 2.6 284 13.2 101530 44
2010-08-06 05:09:46 51°14.16 2°55.383 2.9 236 13.2 101530 46
2010-08-06 05:09:51 51°14.172 2°55.373 3.1 279 13.2 101530 46
2010-08-06 05:09:56 51°14.185 2°55.362 2.9 315 13.2 101530 44
2010-08-06 05:10:00 51°14.195 2°55.354 3.1 284 13.2 101530 44
2010-08-06 05:10:06 51°14.21 2°55.341 3.2 240 13.2 101530 43
2010-08-06 05:10:11 51°14.223 2°55.33 3 285 13.2 101530 43
2010-08-06 05:10:16 51°14.235 2°55.319 3 38 13.2 101530 43
2010-08-06 05:10:20 51°14.245 2°55.31 3.4 284 13.2 101530 43
2010-08-06 05:10:26 51°14.26 2°55.296 3 317 13.2 101530 43
2010-08-06 05:10:31 51°14.272 2°55.284 2.9 279 13.2 101520 44
2010-08-06 05:10:36 51°14.285 2°55.273 3 237 13.2 101530 44
2010-08-06 05:10:41 51°14.297 2°55.261 3 285 13.2 101530 44
2010-08-06 05:10:46 51°14.31 2°55.249 3.1 40 13.2 101530 44
2010-08-06 05:10:51 51°14.322 2°55.237 3.2 282 13.2 101520 46
2010-08-06 05:10:56 51°14.335 2°55.225 3.4 319 13.3 101520 44
2010-08-06 05:11:01 51°14.347 2°55.212 3 282 13.3 101520 44
2010-08-06 05:11:05 51°14.357 2°55.203 3.1 31 13.3 101520 45
2010-08-06 05:11:11 51°14.372 2°55.188 3.4 280 13.3 101520 45
2010-08-06 05:11:16 51°14.385 2°55.174 2.9 32 13.3 101520 43
2010-08-06 05:11:21 51°14.397 2°55.161 3.8 284 13.3 101520 43
2010-08-06 05:11:26 51°14.41 2°55.148 4 318 13.3 101520 45
2010-08-06 05:11:31 51°14.423 2°55.134 3.7 285 13.3 101520 45
2010-08-06 05:11:36 51°14.436 2°55.121 3.3 319 13.3 101520 44
2010-08-06 05:11:41 51°14.449 2°55.108 4.2 283 13.3 101520 44
2010-08-06 05:11:46 51°14.462 2°55.095 4.2 33 13.4 101520 46
2010-08-06 05:11:51 51°14.476 2°55.083 3.4 280 13.4 101520 46
2010-08-06 05:11:56 51°14.489 2°55.069 4.6 34 13.4 101530 44
2010-08-06 05:12:00 51°14.5 2°55.058 4.3 278 13.4 101530 44
2010-08-06 05:12:06 51°14.516 2°55.041 4.8 33 13.4 101530 44
2010-08-06 05:12:11 51°14.53 2°55.025 4.8 284 13.4 101530 44
2010-08-06 05:12:16 51°14.543 2°55.009 4.9 33 13.5 101520 44
2010-08-06 05:12:20 51°14.555 2°54.997 5.3 282 13.5 101520 44
2010-08-06 05:12:26 51°14.571 2°54.977 5.1 40 13.5 101520 44
2010-08-06 05:12:31 51°14.586 2°54.961 6.1 279 13.5 101520 44
2010-08-06 05:12:36 51°14.601 2°54.945 5.6 32 13.6 101520 44
2010-08-06 05:12:40 51°14.612 2°54.932 5.1 283 13.6 101520 44
2010-08-06 05:12:46 51°14.63 2°54.913 5.4 39 13.6 101530 45
2010-08-06 05:12:51 51°14.644 2°54.896 5.5 284 13.6 101530 45
2010-08-06 05:12:56 51°14.659 2°54.879 5.1 232 13.6 101510 44
2010-08-06 05:13:00 51°14.671 2°54.865 5.3 278 13.6 101510 44
2010-08-06 05:13:06 51°14.689 2°54.844 5.3 34 13.6 101520 46
2010-08-06 05:13:11 51°14.704 2°54.827 4.7 283 13.6 101520 46
2010-08-06 05:13:16 51°14.719 2°54.81 5.1 233 13.7 101510 45
2010-08-06 05:13:20 51°14.731 2°54.796 4.9 282 13.7 101510 45
2010-08-06 05:13:26 51°14.749 2°54.776 5 31 13.7 101520 44
2010-08-06 05:13:31 51°14.764 2°54.759 5.3 278 13.7 101520 44
2010-08-06 05:13:36 51°14.779 2°54.741 4.7 235 13.7 101520 44
2010-08-06 05:13:41 51°14.794 2°54.724 5 284 13.7 101520 44
2010-08-06 05:13:46 51°14.809 2°54.706 5.3 33 13.7 101520 46
2010-08-06 05:13:51 51°14.824 2°54.688 5.5 283 13.7 101520 46
2010-08-06 05:13:56 51°14.839 2°54.671 5.2 35 13.7 101520 45
2010-08-06 05:14:00 51°14.851 2°54.657 6.1 278 13.7 101520 45
2010-08-06 05:14:06 51°14.869 2°54.635 6.1 36 13.7 101520 44
2010-08-06 05:14:11 51°14.884 2°54.618 5.2 284 13.7 101520 44
2010-08-06 05:14:16 51°14.899 2°54.6 5.3 33 13.8 101520 46
2010-08-06 05:14:20 51°14.911 2°54.586 5.1 279 13.8 101520 46
2010-08-06 05:14:26 51°14.928 2°54.565 5.2 33 13.8 101520 44
2010-08-06 05:14:31 51°14.943 2°54.547 5 285 13.8 101520 44
2010-08-06 05:14:36 51°14.958 2°54.53 5.1 34 13.8 101530 44
2010-08-06 05:14:40 51°14.97 2°54.516 6.1 284 13.8 101530 44
2010-08-06 05:14:46 51°14.988 2°54.495 5.8 32 13.8 101520 44
2010-08-06 05:14:51 51°15.003 2°54.478 5.2 284 13.8 101520 44
2010-08-06 05:14:56 51°15.017 2°54.461 4.9 34 13.8 101520 46
2010-08-06 05:15:00 51°15.029 2°54.446 4.9 281 13.8 101520 46
2010-08-06 05:15:06 51°15.047 2°54.425 4.8 34 13.9 101520 45
2010-08-06 05:15:11 51°15.061 2°54.407 4.2 277 13.9 101520 45
2010-08-06 05:15:16 51°15.076 2°54.389 5.1 34 13.9 101530 46
2010-08-06 05:15:20 51°15.087 2°54.375 4.5 283 13.9 101530 46
2010-08-06 05:15:26 51°15.105 2°54.353 4.7 38 13.8 101520 44
2010-08-06 05:15:31 51°15.119 2°54.335 4.4 279 13.8 101520 44
2010-08-06 05:15:36 51°15.134 2°54.317 4.7 37 13.9 101530 45
2010-08-06 05:15:40 51°15.145 2°54.302 4.9 281 13.9 101530 45
2010-08-06 05:15:46 51°15.163 2°54.28 5.2 34 13.9 101530 44
2010-08-06 05:15:51 51°15.177 2°54.262 4.9 280 13.9 101530 44
2010-08-06 05:15:56 51°15.192 2°54.244 4.3 36 13.9 101530 46
2010-08-06 05:16:00 51°15.204 2°54.229 5.2 285 13.9 101530 46
2010-08-06 05:16:06 51°15.222 2°54.207 4.6 35 13.9 101520 44
2010-08-06 05:16:11 51°15.236 2°54.189 5.2 278 13.9 101520 44
2010-08-06 05:16:16 51°15.251 2°54.171 5.2 34 13.9 101530 46
2010-08-06 05:16:20 51°15.263 2°54.157 5.9 284 13.9 101530 46
2010-08-06 05:16:26 51°15.28 2°54.135 6.2 31 13.9 101520 46
2010-08-06 05:16:31 51°15.295 2°54.117 5.3 284 13.9 101520 46
2010-08-06 05:16:36 51°15.31 2°54.099 5 21 14 101530 44
2010-08-06 05:16:40 51°15.322 2°54.084 5.7 280 14 101530 44
2010-08-06 05:16:46 51°15.339 2°54.063 4.7 38 14 101520 46
2010-08-06 05:16:51 51°15.354 2°54.044 5.7 284 14 101520 46
2010-08-06 05:16:56 51°15.369 2°54.026 5.5 33 14 101520 44
2010-08-06 05:17:00 51°15.381 2°54.011 4.8 282 14 101520 44
2010-08-06 05:17:06 51°15.398 2°53.99 4.9 35 14 101530 44
2010-08-06 05:17:11 51°15.413 2°53.971 5.2 284 14 101530 44
2010-08-06 05:17:16 51°15.427 2°53.953 5 231 14 101520 44
2010-08-06 05:17:20 51°15.439 2°53.939 5.2 284 14 101520 44
2010-08-06 05:17:26 51°15.456 2°53.917 4.7 34 14.1 101530 46
2010-08-06 05:17:31 51°15.471 2°53.899 4.3 279 14.1 101530 46
2010-08-06 05:17:36 51°15.486 2°53.881 4.3 35 14.1 101520 44
2010-08-06 05:17:41 51°15.5 2°53.863 4.5 284 14.1 101520 44
2010-08-06 05:17:46 51°15.515 2°53.845 5.3 35 14.1 101520 44
2010-08-06 05:17:51 51°15.53 2°53.826 4.8 283 14.1 101520 44
2010-08-06 05:17:56 51°15.544 2°53.808 4.6 231 14.1 101530 45
2010-08-06 05:18:00 51°15.556 2°53.794 4.8 285 14.1 101530 45
2010-08-06 05:18:06 51°15.574 2°53.772 4.9 35 14.1 101520 44
2010-08-06 05:18:11 51°15.588 2°53.753 5.7 278 14.1 101520 44
2010-08-06 05:18:16 51°15.603 2°53.735 5.5 34 14.1 101530 45
2010-08-06 05:18:20 51°15.615 2°53.72 4.7 279 14.1 101530 45
2010-08-06 05:18:26 51°15.632 2°53.699 4.6 34 14.2 101520 44
2010-08-06 05:18:31 51°15.647 2°53.68 5.4 283 14.2 101520 44
2010-08-06 05:18:36 51°15.662 2°53.662 5.8 39 14.2 101520 45
2010-08-06 05:18:40 51°15.674 2°53.648 5 284 14.2 101520 45
2010-08-06 05:18:45 51°15.688 2°53.629 5 34 14.2 101520 45
2010-08-06 05:18:51 51°15.707 2°53.609 4.4 284 14.2 101530 44
2010-08-06 05:18:56 51°15.722 2°53.591 4.3 34 14.2 101520 46
2010-08-06 05:19:00 51°15.734 2°53.579 4.6 284 14.2 101520 46
2010-08-06 05:19:05 51°15.75 2°53.562 4.6 233 14.2 101530 44
2010-08-06 05:19:10 51°15.766 2°53.547 4.8 279 14.2 101530 44
2010-08-06 05:19:15 51°15.781 2°53.532 4.5 34 14.2 101530 44
2010-08-06 05:19:20 51°15.798 2°53.519 4.4 285 14.2 101530 44
2010-08-06 05:19:25 51°15.814 2°53.505 4.2 34 14.3 101520 45
2010-08-06 05:19:30 51°15.831 2°53.492 4.4 280 14.3 101520 45
2010-08-06 05:19:35 51°15.847 2°53.48 3.9 34 14.3 101530 45
2010-08-06 05:19:40 51°15.864 2°53.467 3.4 286 14.3 101530 45
2010-08-06 05:19:45 51°15.88 2°53.455 4.7 33 14.3 101530 45
2010-08-06 05:19:50 51°15.897 2°53.443 3.6 285 14.3 101530 45
2010-08-06 05:19:55 51°15.914 2°53.431 3.5 35 14.3 101530 45
2010-08-06 05:20:00 51°15.931 2°53.42 4.3 277 14.3 101530 47
2010-08-06 05:20:05 51°15.947 2°53.408 3.3 33 14.3 101530 47
2010-08-06 05:20:10 51°15.964 2°53.396 3.4 280 14.3 101530 47
2010-08-06 05:20:15 51°15.981 2°53.384 3.7 234 14.3 101530 44
2010-08-06 05:20:20 51°15.998 2°53.373 3.7 278 14.3 101530 44
2010-08-06 05:20:25 51°16.014 2°53.361 3.6 234 14.3 101520 47
2010-08-06 05:20:30 51°16.031 2°53.349 3.8 284 14.3 101520 47
2010-08-06 05:20:35 51°16.048 2°53.337 3.3 232 14.3 101530 44
2010-08-06 05:20:40 51°16.064 2°53.325 3.3 279 14.3 101530 44
2010-08-06 05:20:45 51°16.081 2°53.313 3.9 34 14.4 101530 45
2010-08-06 05:20:50 51°16.098 2°53.301 3.8 284 14.4 101530 45
2010-08-06 05:20:55 51°16.115 2°53.289 4.3 34 14.4 101530 44
2010-08-06 05:21:00 51°16.131 2°53.276 3.6 278 14.4 101530 44
2010-08-06 05:21:05 51°16.148 2°53.264 3.5 35 14.4 101530 45
2010-08-06 05:21:10 51°16.165 2°53.252 4.1 284 14.4 101530 45
2010-08-06 05:21:15 51°16.181 2°53.24 3.7 35 14.4 101530 45
2010-08-06 05:21:20 51°16.198 2°53.228 4.1 284 14.4 101530 45
2010-08-06 05:21:25 51°16.215 2°53.215 4 32 14.5 101530 46
2010-08-06 05:21:29 51°16.228 2°53.206 4 280 14.5 101530 46
2010-08-06 05:21:35 51°16.248 2°53.191 3.8 32 14.5 101530 47
2010-08-06 05:21:40 51°16.265 2°53.179 3.4 277 14.5 101530 47
2010-08-06 05:21:45 51°16.282 2°53.167 3.8 32 14.5 101530 44
2010-08-06 05:21:50 51°16.299 2°53.155 3.1 285 14.5 101530 44
2010-08-06 05:21:56 51°16.318 2°53.14 3.6 32 14.5 101530 44
2010-08-06 05:22:00 51°16.332 2°53.13 4.1 284 14.5 101530 44
2010-08-06 05:22:05 51°16.349 2°53.118 4.2 31 14.6 101520 46
2010-08-06 05:22:10 51°16.365 2°53.106 4.4 286 14.6 101520 46
2010-08-06 05:22:15 51°16.382 2°53.094 3.8 32 14.6 101520 46
2010-08-06 05:22:20 51°16.399 2°53.081 3.6 279 14.6 101540 45
2010-08-06 05:22:25 51°16.416 2°53.069 4.1 39 14.6 101530 47
2010-08-06 05:22:30 51°16.432 2°53.057 4.6 285 14.6 101530 47
2010-08-06 05:22:35 51°16.449 2°53.044 3.9 32 14.6 101530 46
2010-08-06 05:22:40 51°16.466 2°53.032 4.2 279 14.6 101530 46
2010-08-06 05:22:45 51°16.483 2°53.02 3.6 33 14.7 101530 46
2010-08-06 05:22:50 51°16.5 2°53.007 3.8 283 14.7 101530 46
2010-08-06 05:22:55 51°16.516 2°52.995 3.6 38 14.7 101530 46
2010-08-06 05:23:00 51°16.533 2°52.983 3.5 279 14.7 101520 47
2010-08-06 05:23:05 51°16.55 2°52.971 3.2 37 14.7 101530 45
2010-08-06 05:23:10 51°16.567 2°52.959 3.8 284 14.7 101530 45
2010-08-06 05:23:15 51°16.584 2°52.947 3.5 34 14.7 101530 47
2010-08-06 05:23:20 51°16.6 2°52.935 3.1 286 14.7 101530 47
2010-08-06 05:23:25 51°16.617 2°52.923 3.1 33 14.7 101530 47
2010-08-06 05:23:30 51°16.634 2°52.912 3 283 14.7 101530 43
2010-08-06 05:23:35 51°16.65 2°52.9 3.8 39 14.7 101520 45
2010-08-06 05:23:40 51°16.667 2°52.888 3.5 284 14.7 101520 45
2010-08-06 05:23:45 51°16.684 2°52.876 3.8 232 14.7 101530 47
2010-08-06 05:23:50 51°16.7 2°52.864 3.9 277 14.7 101530 47
2010-08-06 05:23:55 51°16.716 2°52.852 3.8 33 14.8 101530 43
2010-08-06 05:24:00 51°16.733 2°52.84 4 283 14.8 101530 43
2010-08-06 05:24:05 51°16.749 2°52.828 4.1 34 14.8 101530 47
2010-08-06 05:24:10 51°16.766 2°52.816 3.9 278 14.8 101530 47
2010-08-06 05:24:15 51°16.782 2°52.804 4.8 36 14.8 101520 45
2010-08-06 05:24:20 51°16.799 2°52.792 3.9 283 14.8 101520 45
2010-08-06 05:24:25 51°16.815 2°52.78 4.4 39 14.9 101530 47
2010-08-06 05:24:30 51°16.831 2°52.768 4.3 285 14.9 101530 47
2010-08-06 05:24:35 51°16.847 2°52.756 4.5 37 14.9 101540 45
2010-08-06 05:24:40 51°16.863 2°52.743 3.2 285 14.9 101540 45
2010-08-06 05:24:45 51°16.879 2°52.731 4 37 14.9 101530 45
2010-08-06 05:24:50 51°16.895 2°52.719 4.1 278 14.9 101530 45
2010-08-06 05:24:55 51°16.911 2°52.707 4.4 233 14.9 101530 45
2010-08-06 05:25:00 51°16.928 2°52.695 3.2 286 15 101530 45
2010-08-06 05:25:05 51°16.945 2°52.686 4 39 15 101540 45
2010-08-06 05:25:10 51°16.962 2°52.677 3.2 278 15 101540 45
2010-08-06 05:25:15 51°16.979 2°52.668 3.4 33 15 101530 45
2010-08-06 05:25:20 51°16.996 2°52.661 2.9 279 15 101530 45
2010-08-06 05:25:24 51°17.01 2°52.655 2.7 33 15 101530 47
2010-08-06 05:25:30 51°17.031 2°52.649 2.7 279 15 101530 47
2010-08-06 05:25:35 51°17.049 2°52.644 2.5 316 15.1 101540 45
2010-08-06 05:25:40 51°17.067 2°52.641 2.7 286 15.1 101540 45
2010-08-06 05:25:45 51°17.084 2°52.638 2.8 319 15.1 101540 45
2010-08-06 05:25:50 51°17.102 2°52.636 2.3 282 15.1 101530 47
2010-08-06 05:25:55 51°17.119 2°52.634 2.3 319 15.1 101530 47
2010-08-06 05:26:00 51°17.137 2°52.633 2.6 277 15.1 101530 47
2010-08-06 05:26:05 51°17.155 2°52.632 2.5 320 15.1 101530 45
2010-08-06 05:26:10 51°17.172 2°52.631 2.6 280 15.1 101530 45
2010-08-06 05:26:15 51°17.19 2°52.63 2.6 323 15.2 101530 45
2010-08-06 05:26:20 51°17.208 2°52.63 2.2 279 15.2 101530 45
2010-08-06 05:26:25 51°17.225 2°52.629 2.3 320 15.2 101540 45
2010-08-06 05:26:30 51°17.243 2°52.629 2.4 279 15.2 101540 45
2010-08-06 05:26:35 51°17.261 2°52.628 2.1 322 15.3 101530 48
2010-08-06 05:26:40 51°17.278 2°52.628 2.3 284 15.3 101530 48
2010-08-06 05:26:45 51°17.296 2°52.627 2.3 319 15.3 101540 46
2010-08-06 05:26:50 51°17.314 2°52.626 2.6 278 15.3 101540 46
2010-08-06 05:26:55 51°17.332 2°52.625 2.5 323 15.4 101530 48
2010-08-06 05:27:00 51°17.349 2°52.624 1.9 280 15.4 101530 48
2010-08-06 05:27:05 51°17.367 2°52.623 2 319 15.4 101540 45
2010-08-06 05:27:10 51°17.385 2°52.622 2.3 285 15.4 101540 45
2010-08-06 05:27:15 51°17.403 2°52.62 2.1 324 15.4 101540 45
2010-08-06 05:27:20 51°17.421 2°52.619 2.2 284 15.5 101530 48
2010-08-06 05:27:25 51°17.439 2°52.617 2.3 324 15.5 101530 45
2010-08-06 05:27:30 51°17.457 2°52.617 2.5 279 15.5 101530 45
2010-08-06 05:27:35 51°17.475 2°52.615 2.1 327 15.5 101530 45
2010-08-06 05:27:40 51°17.493 2°52.614 2.7 280 15.5 101530 45
2010-08-06 05:27:45 51°17.511 2°52.613 2.8 320 15.5 101530 45
2010-08-06 05:27:50 51°17.528 2°52.611 2.7 283 15.6 101530 46
2010-08-06 05:27:55 51°17.546 2°52.61 2.9 318 15.6 101540 48
2010-08-06 05:28:00 51°17.564 2°52.608 2.1 277 15.6 101540 48
2010-08-06 05:28:05 51°17.582 2°52.607 2.7 318 15.6 101530 48
2010-08-06 05:28:10 51°17.6 2°52.605 2.6 282 15.6 101530 48
2010-08-06 05:28:15 51°17.618 2°52.604 2 323 15.7 101530 48
2010-08-06 05:28:20 51°17.636 2°52.602 2.2 283 15.7 101530 48
2010-08-06 05:28:25 51°17.654 2°52.6 2.4 325 15.7 101540 46
2010-08-06 05:28:30 51°17.672 2°52.599 2.5 278 15.7 101540 46
2010-08-06 05:28:35 51°17.689 2°52.598 3.1 328 15.8 101530 48
2010-08-06 05:28:40 51°17.707 2°52.595 2.4 279 15.8 101530 48
2010-08-06 05:28:45 51°17.725 2°52.595 2.7 325 15.8 101530 44
2010-08-06 05:29:06 51°17.8 2°52.589 1.9 327 15.9 101540 48
2010-08-06 05:29:44 51°17.936 2°52.576 2.1 318 15.9 101530 44
2010-08-06 05:29:49 51°17.954 2°52.575 2.6 324 15.9 101530 48
2010-08-06 05:31:15 51°18.264 2°52.543 2.1 331 -999 -999 -999
2010-08-06 05:31:20 51°18.282 2°52.541 2.5 277 16.1 101530 48
2010-08-06 05:31:25 51°18.301 2°52.539 2.5 330 16.1 101530 44
2010-08-06 05:31:30 51°18.319 2°52.537 1.8 282 16.1 101530 44
2010-08-06 05:31:35 51°18.337 2°52.535 2 326 16.1 101540 45
2010-08-06 05:31:40 51°18.355 2°52.534 2.4 284 16.1 101540 45
2010-08-06 05:31:45 51°18.373 2°52.531 2.3 327 16.2 101530 48
2010-08-06 05:31:50 51°18.391 2°52.53 1.4 286 16.2 101530 48
2010-08-06 05:31:55 51°18.409 2°52.527 1.6 324 16.2 101530 44
2010-08-06 05:32:00 51°18.427 2°52.526 2.5 282 16.2 101530 44
2010-08-06 05:32:05 51°18.446 2°52.524 3 322 16.2 101520 48
2010-08-06 05:32:10 51°18.464 2°52.522 3.2 283 16.2 101520 48
2010-08-06 05:32:15 51°18.482 2°52.52 3.5 325 16.3 101530 46
2010-08-06 05:32:20 51°18.5 2°52.519 3.4 278 16.3 101530 46
2010-08-06 05:32:25 51°18.518 2°52.516 3.2 323 16.3 101530 46
2010-08-06 05:32:30 51°18.536 2°52.516 3.4 281 16.3 101520 48
2010-08-06 05:32:35 51°18.553 2°52.512 3.4 316 16.3 101530 48
2010-08-06 05:32:40 51°18.572 2°52.511 3.6 278 16.3 101530 48
2010-08-06 05:32:45 51°18.589 2°52.509 4 318 16.2 101530 48
2010-08-06 05:32:50 51°18.608 2°52.507 3.2 277 16.2 101530 48
2010-08-06 05:32:55 51°18.626 2°52.505 3.1 317 16.2 101520 47
2010-08-06 05:33:00 51°18.644 2°52.503 3.5 285 16.2 101520 47
2010-08-06 05:33:05 51°18.662 2°52.501 3.8 320 16.2 101520 46
2010-08-06 05:33:10 51°18.68 2°52.499 3.5 277 16.2 101520 46
2010-08-06 05:33:15 51°18.698 2°52.497 4.1 318 16.2 101530 45
2010-08-06 05:33:20 51°18.716 2°52.495 4.5 284 16.2 101530 45
2010-08-06 05:33:25 51°18.734 2°52.493 4.3 36 16.1 101520 45
2010-08-06 05:33:30 51°18.752 2°52.491 3.9 277 16.1 101520 45
2010-08-06 05:33:35 51°18.77 2°52.488 3.2 34 16.1 101530 45
2010-08-06 05:33:40 51°18.788 2°52.488 4.4 277 16.1 101530 45
2010-08-06 05:33:45 51°18.806 2°52.484 3.8 33 16.1 101530 46
2010-08-06 05:33:50 51°18.824 2°52.483 4.4 278 16.1 101530 46
2010-08-06 05:33:55 51°18.842 2°52.48 4.6 33 16.1 101520 48
2010-08-06 05:34:00 51°18.86 2°52.479 5 279 16.1 101520 48
2010-08-06 05:34:05 51°18.878 2°52.476 3.8 319 16.1 101510 44
2010-08-06 05:34:10 51°18.896 2°52.474 3.6 282 16.1 101510 44
2010-08-06 05:34:15 51°18.914 2°52.472 4.3 329 16.1 101520 47
2010-08-06 05:34:20 51°18.932 2°52.47 4.5 279 16.1 101520 47
2010-08-06 05:34:25 51°18.95 2°52.468 5.1 328 16.1 101520 47
2010-08-06 05:34:30 51°18.968 2°52.466 4.1 278 16.1 101520 45
2010-08-06 05:34:35 51°18.985 2°52.464 5.5 325 16.1 101520 44
2010-08-06 05:34:40 51°19.003 2°52.462 6.3 283 16.1 101520 44
2010-08-06 05:34:45 51°19.021 2°52.459 6.2 323 16.2 101520 48
2010-08-06 05:34:50 51°19.039 2°52.458 5.4 278 16.2 101520 48
2010-08-06 05:34:55 51°19.057 2°52.455 5.6 326 16.3 101520 46
2010-08-06 05:35:00 51°19.075 2°52.454 6 281 16.3 101520 46
2010-08-06 05:35:05 51°19.093 2°52.452 6.3 322 16.3 101520 46
2010-08-06 05:35:10 51°19.111 2°52.45 6.7 283 16.3 101520 46
2010-08-06 05:35:16 51°19.133 2°52.447 6.8 324 16.2 101520 45
2010-08-06 05:35:20 51°19.147 2°52.446 6.4 283 16.2 101520 45
2010-08-06 05:35:25 51°19.165 2°52.444 6.7 325 16 101530 45
2010-08-06 05:35:30 51°19.183 2°52.442 7 278 16 101530 45
2010-08-06 05:35:35 51°19.202 2°52.44 6.5 323 16 101520 45
2010-08-06 05:35:40 51°19.22 2°52.438 6.8 284 16 101520 45
2010-08-06 05:35:45 51°19.238 2°52.436 6.6 320 15.9 101530 45
2010-08-06 05:35:50 51°19.256 2°52.434 6.8 277 15.9 101530 45
2010-08-06 05:35:55 51°19.274 2°52.432 6.7 321 15.8 101520 46
2010-08-06 05:36:00 51°19.292 2°52.431 7.1 285 15.8 101520 46
2010-08-06 05:36:05 51°19.31 2°52.428 6.6 320 15.8 101530 45
2010-08-06 05:36:10 51°19.328 2°52.427 6.3 285 15.8 101530 45
2010-08-06 05:36:15 51°19.346 2°52.425 6.7 320 15.8 101510 45
2010-08-06 05:36:20 51°19.364 2°52.422 7 281 15.8 101510 45
2010-08-06 05:36:25 51°19.382 2°52.421 6.5 322 15.8 101510 46
2010-08-06 05:36:30 51°19.4 2°52.419 7.5 281 15.8 101510 46
2010-08-06 05:36:35 51°19.418 2°52.417 6.6 322 15.8 101510 45
2010-08-06 05:36:40 51°19.436 2°52.415 6.2 279 15.8 101510 45
2010-08-06 05:36:44 51°19.45 2°52.414 6.8 320 15.8 101520 45
2010-08-06 05:36:50 51°19.472 2°52.411 6.7 278 15.8 101520 45
2010-08-06 05:36:56 51°19.493 2°52.409 7.7 324 15.8 101510 45
2010-08-06 05:37:00 51°19.508 2°52.407 7.4 280 15.8 101510 45
2010-08-06 05:37:05 51°19.526 2°52.405 7.6 323 15.8 101520 46
2010-08-06 05:37:10 51°19.544 2°52.403 7.1 278 15.8 101520 46
2010-08-06 05:37:15 51°19.562 2°52.401 6.3 323 15.8 101520 43
2010-08-06 05:37:20 51°19.58 2°52.399 6.2 279 15.8 101520 43
2010-08-06 05:37:25 51°19.598 2°52.398 5.8 322 15.9 101510 45
2010-08-06 05:37:30 51°19.616 2°52.395 8 286 15.9 101510 45
2010-08-06 05:37:35 51°19.634 2°52.394 7 321 16 101510 44
2010-08-06 05:37:40 51°19.652 2°52.392 8 276 16 101510 44
2010-08-06 05:37:45 51°19.67 2°52.39 7.3 324 16 101510 44
2010-08-06 05:37:50 51°19.688 2°52.388 6.4 283 16 101510 44
2010-08-06 05:37:55 51°19.706 2°52.386 6.9 322 16 101510 44
2010-08-06 05:38:00 51°19.723 2°52.384 6.3 283 16.1 101510 44
2010-08-06 05:38:05 51°19.741 2°52.383 6.5 321 16.2 101510 45
2010-08-06 05:38:10 51°19.759 2°52.38 7 285 16.2 101510 45
2010-08-06 05:38:15 51°19.777 2°52.378 6.5 323 16.2 101520 43
2010-08-06 05:38:20 51°19.795 2°52.375 6.7 286 16.2 101520 43
2010-08-06 05:38:25 51°19.813 2°52.374 7 321 16.3 101510 43
2010-08-06 05:38:30 51°19.832 2°52.372 7.5 283 16.3 101510 43
2010-08-06 05:38:35 51°19.85 2°52.37 7.6 322 16.4 101520 43
2010-08-06 05:38:40 51°19.868 2°52.368 6.7 283 16.4 101520 43
2010-08-06 05:38:45 51°19.886 2°52.366 7.4 319 16.5 101510 44
2010-08-06 05:38:50 51°19.904 2°52.364 7.5 282 16.5 101510 44
2010-08-06 05:38:55 51°19.922 2°52.363 7.6 321 16.5 101510 43
2010-08-06 05:39:00 51°19.94 2°52.361 7.2 283 16.5 101510 43
2010-08-06 05:39:05 51°19.959 2°52.359 8.1 322 16.6 101520 44
2010-08-06 05:39:10 51°19.977 2°52.358 7.6 280 16.6 101520 44
2010-08-06 05:39:15 51°19.995 2°52.356 6.6 323 16.6 101510 43
2010-08-06 05:39:20 51°20.013 2°52.355 6.7 284 16.6 101510 43
2010-08-06 05:39:25 51°20.031 2°52.353 7.7 322 16.7 101510 42
2010-08-06 05:39:30 51°20.049 2°52.351 7.6 281 16.7 101510 42
2010-08-06 05:39:35 51°20.067 2°52.35 8.1 322 16.7 101520 42
2010-08-06 05:39:40 51°20.085 2°52.347 6.5 277 16.7 101520 42
2010-08-06 05:39:45 51°20.103 2°52.346 7.1 322 16.8 101510 42
2010-08-06 05:39:50 51°20.121 2°52.344 6.8 279 16.8 101510 42
2010-08-06 05:39:55 51°20.139 2°52.341 7.2 323 16.8 101510 40
2010-08-06 05:40:00 51°20.157 2°52.339 7.3 284 16.8 101510 40
2010-08-06 05:40:05 51°20.175 2°52.337 7.2 322 16.9 101520 41
2010-08-06 05:40:10 51°20.193 2°52.335 6.9 278 16.9 101520 41
2010-08-06 05:40:15 51°20.211 2°52.334 7.5 324 16.9 101510 42
2010-08-06 05:40:20 51°20.229 2°52.333 6.3 277 16.9 101510 42
2010-08-06 05:40:25 51°20.248 2°52.333 7.4 323 17 101510 41
2010-08-06 05:40:30 51°20.266 2°52.333 6.2 284 17 101510 41
2010-08-06 05:40:35 51°20.284 2°52.333 6.3 323 17.1 101520 42
2010-08-06 05:40:40 51°20.302 2°52.334 6.9 279 17.1 101520 42
2010-08-06 05:40:45 51°20.32 2°52.335 6.7 322 17.2 101510 41
2010-08-06 05:40:50 51°20.338 2°52.336 6.4 283 17.2 101510 41
2010-08-06 05:40:55 51°20.356 2°52.337 7 324 17.2 101520 41
2010-08-06 05:41:00 51°20.374 2°52.337 6.9 279 17.2 101520 41
2010-08-06 05:41:05 51°20.392 2°52.338 6.7 324 17.2 101520 41
2010-08-06 05:41:10 51°20.41 2°52.339 6.6 279 17.2 101510 40
2010-08-06 05:41:15 51°20.428 2°52.339 6.7 323 17.2 101520 41
2010-08-06 05:41:20 51°20.446 2°52.341 7 280 17.2 101520 41
2010-08-06 05:41:25 51°20.464 2°52.341 6.7 323 17.3 101520 41
2010-08-06 05:41:30 51°20.482 2°52.342 7.2 284 17.3 101520 41
2010-08-06 05:41:35 51°20.5 2°52.342 6.4 323 17.3 101510 40
2010-08-06 05:41:40 51°20.517 2°52.343 6.9 285 17.3 101510 40
2010-08-06 05:41:45 51°20.536 2°52.343 6.7 322 17.4 101510 41
2010-08-06 05:41:50 51°20.554 2°52.344 6.5 280 17.4 101510 41
2010-08-06 05:41:55 51°20.571 2°52.345 6.6 323 17.4 101510 40
2010-08-06 05:42:00 51°20.589 2°52.346 7.9 281 17.4 101510 40
2010-08-06 05:42:04 51°20.604 2°52.346 7.1 322 17.4 101520 39
2010-08-06 05:42:10 51°20.625 2°52.347 6.3 280 17.4 101520 39
2010-08-06 05:42:15 51°20.643 2°52.348 7.7 321 17.5 101530 40
2010-08-06 05:42:20 51°20.661 2°52.349 7.4 285 17.5 101530 40
2010-08-06 05:42:25 51°20.679 2°52.349 7.1 319 17.5 101510 39
2010-08-06 05:42:30 51°20.697 2°52.35 7.8 278 17.5 101510 39
2010-08-06 05:42:35 51°20.714 2°52.351 7.6 320 17.5 101510 39
2010-08-06 05:42:40 51°20.732 2°52.351 6.1 280 17.5 101520 38
2010-08-06 05:42:45 51°20.75 2°52.352 6.7 319 17.5 101520 40
2010-08-06 05:42:50 51°20.768 2°52.353 7.3 285 17.5 101520 40
2010-08-06 05:42:55 51°20.786 2°52.354 6.8 321 17.5 101520 39
2010-08-06 05:43:00 51°20.804 2°52.354 7.1 285 17.5 101520 39
2010-08-06 05:43:04 51°20.818 2°52.355 7 322 17.6 101520 39
2010-08-06 05:43:10 51°20.84 2°52.356 7.4 284 17.6 101520 39
2010-08-06 05:43:15 51°20.858 2°52.357 7.1 322 17.6 101510 39
2010-08-06 05:43:20 51°20.876 2°52.357 7.7 284 17.6 101510 39
2010-08-06 05:43:25 51°20.894 2°52.358 7.3 321 17.6 101510 39
2010-08-06 05:43:30 51°20.912 2°52.359 6.5 283 17.6 101520 40
2010-08-06 05:43:35 51°20.93 2°52.359 7 322 17.6 101520 39
2010-08-06 05:43:40 51°20.948 2°52.36 7.3 285 17.6 101520 39
2010-08-06 05:43:45 51°20.966 2°52.361 8.1 321 17.6 101510 38
2010-08-06 05:43:49 51°20.981 2°52.362 6.9 284 17.6 101510 38
2010-08-06 05:43:55 51°21.002 2°52.363 6.6 320 17.7 101520 38
2010-08-06 05:44:00 51°21.02 2°52.364 7.4 284 17.7 101520 38
2010-08-06 05:44:05 51°21.038 2°52.365 7.9 322 17.7 101520 39
2010-08-06 05:44:10 51°21.056 2°52.366 8.4 278 17.7 101520 39
2010-08-06 05:44:16 51°21.078 2°52.366 7.5 322 17.7 101520 38
2010-08-06 05:44:20 51°21.092 2°52.367 7.7 283 17.7 101520 38
2010-08-06 05:44:25 51°21.111 2°52.367 8.2 323 17.8 101510 39
2010-08-06 05:44:30 51°21.129 2°52.368 7.4 286 17.8 101510 39
2010-08-06 05:44:35 51°21.147 2°52.369 7.3 321 17.8 101510 40
2010-08-06 05:44:40 51°21.165 2°52.369 7 278 17.8 101510 40
2010-08-06 05:44:45 51°21.183 2°52.37 7.1 322 17.8 101510 38
2010-08-06 05:44:50 51°21.201 2°52.37 7.1 283 17.8 101510 38
2010-08-06 05:44:55 51°21.219 2°52.371 7.2 322 17.8 101510 40
2010-08-06 05:45:00 51°21.237 2°52.371 6.3 277 17.8 101510 40
2010-08-06 05:45:05 51°21.255 2°52.372 8.2 321 17.8 101520 40
2010-08-06 05:45:10 51°21.273 2°52.372 8.1 285 17.8 101520 40
2010-08-06 05:45:15 51°21.291 2°52.373 7.8 323 17.8 101520 38
2010-08-06 05:45:20 51°21.309 2°52.374 7.6 286 17.8 101520 38
2010-08-06 05:45:25 51°21.328 2°52.374 7.2 321 17.8 101520 38
2010-08-06 05:45:30 51°21.346 2°52.375 7.9 283 17.9 101520 40
2010-08-06 05:45:35 51°21.364 2°52.375 7.4 322 17.8 101520 39
2010-08-06 05:45:40 51°21.382 2°52.376 6.7 284 17.8 101520 39
2010-08-06 05:45:45 51°21.4 2°52.376 6.8 320 17.8 101510 37
2010-08-06 05:45:50 51°21.418 2°52.377 7.5 277 17.8 101510 37
2010-08-06 05:45:55 51°21.436 2°52.377 7.8 322 17.8 101510 39
2010-08-06 05:46:00 51°21.454 2°52.377 6.6 284 17.8 101510 39
2010-08-06 05:46:05 51°21.472 2°52.378 6.9 320 17.8 101520 39
2010-08-06 05:46:10 51°21.49 2°52.378 8 277 17.8 101520 39
2010-08-06 05:46:16 51°21.511 2°52.379 7.7 321 17.8 101510 38
2010-08-06 05:46:20 51°21.526 2°52.379 8.4 284 17.8 101510 38
2010-08-06 05:46:25 51°21.544 2°52.379 7.6 321 17.8 101520 38
2010-08-06 05:46:30 51°21.562 2°52.38 7.6 283 17.8 101520 38
2010-08-06 05:46:35 51°21.58 2°52.38 7.3 321 17.8 101520 37
2010-08-06 05:46:40 51°21.598 2°52.38 7 277 17.8 101520 37
2010-08-06 05:46:45 51°21.616 2°52.381 6.8 320 17.8 101510 37
2010-08-06 05:46:50 51°21.634 2°52.381 7.3 284 17.8 101510 37
2010-08-06 05:46:55 51°21.652 2°52.382 6.6 322 17.8 101520 37
2010-08-06 05:47:00 51°21.67 2°52.382 8.2 284 17.8 101520 37
2010-08-06 05:47:05 51°21.688 2°52.384 8 321 17.8 101510 38
2010-08-06 05:47:10 51°21.706 2°52.386 7.2 282 17.8 101510 38
2010-08-06 05:47:15 51°21.724 2°52.388 7.2 320 17.8 101510 38
2010-08-06 05:47:20 51°21.741 2°52.391 8 283 17.9 101520 37
2010-08-06 05:47:25 51°21.759 2°52.394 7.8 323 17.9 101510 36
2010-08-06 05:47:30 51°21.777 2°52.398 7.3 280 17.9 101510 36
2010-08-06 05:47:35 51°21.795 2°52.4 6.7 323 17.9 101520 38
2010-08-06 05:47:40 51°21.813 2°52.404 6.6 284 17.9 101520 38
2010-08-06 05:47:45 51°21.831 2°52.408 7.4 322 17.9 101520 38
2010-08-06 05:47:50 51°21.849 2°52.412 8.4 283 18 101510 38
2010-08-06 05:47:55 51°21.867 2°52.415 8.2 322 18 101520 37
2010-08-06 05:48:00 51°21.885 2°52.419 7.2 285 18 101520 37
2010-08-06 05:48:05 51°21.903 2°52.423 7 321 18 101520 38
2010-08-06 05:48:10 51°21.921 2°52.427 7.1 278 18 101520 38
2010-08-06 05:48:15 51°21.939 2°52.431 7.4 321 18 101510 39
2010-08-06 05:48:20 51°21.957 2°52.434 7.4 282 18 101510 39
2010-08-06 05:48:25 51°21.975 2°52.439 7.3 322 17.9 101520 37
2010-08-06 05:48:30 51°21.993 2°52.442 6.7 278 17.9 101520 37
2010-08-06 05:48:35 51°22.011 2°52.447 8.2 320 17.9 101510 37
2010-08-06 05:48:40 51°22.029 2°52.451 8.1 280 17.9 101510 37
2010-08-06 05:48:45 51°22.047 2°52.454 8.2 320 17.9 101510 37
2010-08-06 05:48:50 51°22.065 2°52.458 7.5 283 17.9 101510 37
2010-08-06 05:48:55 51°22.083 2°52.462 7.3 321 17.9 101510 38
2010-08-06 05:49:00 51°22.101 2°52.466 8.4 284 17.9 101510 38
2010-08-06 05:49:05 51°22.119 2°52.469 7 319 17.9 101510 38
2010-08-06 05:49:10 51°22.137 2°52.473 7.1 279 18 101500 38
2010-08-06 05:49:15 51°22.155 2°52.476 7.2 320 18 101500 38
2010-08-06 05:49:20 51°22.173 2°52.481 7.9 282 18 101510 37
2010-08-06 05:49:25 51°22.191 2°52.484 8 322 18 101510 37
2010-08-06 05:49:30 51°22.209 2°52.488 6.7 322 18 101520 37
2010-08-06 05:49:36 51°22.231 2°52.492 7.1 320 18 101520 37
2010-08-06 05:49:40 51°22.245 2°52.496 6.9 278 18 101520 37
2010-08-06 05:49:45 51°22.263 2°52.498 7.2 322 18 101520 37
2010-08-06 05:49:50 51°22.281 2°52.503 8.3 284 18 101510 38
2010-08-06 05:49:55 51°22.299 2°52.505 7.8 321 18 101510 38
2010-08-06 05:50:00 51°22.317 2°52.509 8.8 284 18 101520 38
2010-08-06 05:50:05 51°22.335 2°52.513 8.4 320 18 101520 38
2010-08-06 05:50:10 51°22.353 2°52.517 8.1 281 18 101520 38
2010-08-06 05:50:15 51°22.372 2°52.52 8 320 18 101510 37
2010-08-06 05:50:20 51°22.39 2°52.523 7.8 282 18 101510 37
2010-08-06 05:50:25 51°22.408 2°52.527 7.7 319 18 101510 37
2010-08-06 05:50:30 51°22.426 2°52.53 7.4 320 18 101510 38
2010-08-06 05:50:35 51°22.444 2°52.534 8.5 317 18 101510 38
2010-08-06 05:50:40 51°22.463 2°52.538 7.4 282 18 101520 36
2010-08-06 05:50:45 51°22.481 2°52.541 8.1 318 18 101520 36
2010-08-06 05:50:50 51°22.499 2°52.545 8 284 18 101510 37
2010-08-06 05:50:55 51°22.518 2°52.548 7.2 317 18 101510 37
2010-08-06 05:51:00 51°22.536 2°52.552 8.1 277 18 101510 38
2010-08-06 05:51:05 51°22.554 2°52.554 8.2 315 18 101510 38
2010-08-06 05:51:10 51°22.572 2°52.559 8.1 281 18 101510 38
2010-08-06 05:51:15 51°22.59 2°52.562 8.8 318 18 101510 38
2010-08-06 05:51:20 51°22.609 2°52.566 8.8 278 18 101510 37
2010-08-06 05:51:25 51°22.627 2°52.568 7.7 318 18 101510 37
2010-08-06 05:51:30 51°22.645 2°52.573 8.1 321 18 101500 37
2010-08-06 05:51:36 51°22.667 2°52.575 8.2 320 18 101500 37
2010-08-06 05:51:40 51°22.681 2°52.579 8.3 283 18 101510 36
2010-08-06 05:51:45 51°22.699 2°52.581 8.1 318 18 101510 36
2010-08-06 05:51:50 51°22.717 2°52.585 7.7 280 18 101510 36
2010-08-06 05:51:55 51°22.735 2°52.587 7.6 319 18 101510 36
2010-08-06 05:52:00 51°22.753 2°52.592 7.9 278 18 101500 37
2010-08-06 05:52:05 51°22.771 2°52.594 8.5 320 18 101510 37
2010-08-06 05:52:10 51°22.789 2°52.598 8 284 18 101510 37
2010-08-06 05:52:15 51°22.808 2°52.601 8.7 319 18 101510 37
2010-08-06 05:52:20 51°22.826 2°52.605 9.7 283 18 101520 36
2010-08-06 05:52:24 51°22.84 2°52.607 9.1 319 18 101520 36
2010-08-06 05:52:30 51°22.862 2°52.612 8.5 320 18 101510 38
2010-08-06 05:52:35 51°22.881 2°52.614 7.7 319 18 101510 38
2010-08-06 05:52:40 51°22.899 2°52.619 8.5 278 18 101510 38
2010-08-06 05:52:45 51°22.917 2°52.621 8.8 319 18 101510 38
2010-08-06 05:52:50 51°22.935 2°52.625 8.1 283 18 101500 37
2010-08-06 05:52:56 51°22.957 2°52.629 8.2 320 18 101500 37
2010-08-06 05:53:00 51°22.972 2°52.632 7.7 280 18 101510 37
2010-08-06 05:53:05 51°22.99 2°52.635 7.3 319 18 101510 37
2010-08-06 05:53:10 51°23.008 2°52.639 9.1 283 18 101510 36
2010-08-06 05:53:15 51°23.026 2°52.642 8.6 318 18 101510 36
2010-08-06 05:53:20 51°23.044 2°52.646 7.4 278 18 101510 36
2010-08-06 05:53:24 51°23.058 2°52.649 8.4 316 18 101510 36
2010-08-06 05:53:30 51°23.079 2°52.653 7.9 318 18 101510 36
2010-08-06 05:53:35 51°23.097 2°52.656 8.2 321 18 101510 36
2010-08-06 05:53:40 51°23.115 2°52.661 8.1 279 18 101500 36
2010-08-06 05:53:45 51°23.133 2°52.665 7.6 317 18 101500 36
2010-08-06 05:53:50 51°23.151 2°52.67 8.7 284 18 101520 37
2010-08-06 05:53:55 51°23.169 2°52.674 7.9 320 18 101520 37
2010-08-06 05:54:00 51°23.187 2°52.681 7.6 277 18.1 101520 37
2010-08-06 05:54:05 51°23.205 2°52.685 7.1 322 18.1 101520 37
2010-08-06 05:54:10 51°23.222 2°52.691 8 283 18.1 101510 36
2010-08-06 05:54:15 51°23.24 2°52.697 8.1 319 18.1 101510 36
2010-08-06 05:54:20 51°23.257 2°52.702 7.1 284 18.1 101500 37
2010-08-06 05:54:25 51°23.275 2°52.708 7.3 318 18.1 101500 37
2010-08-06 05:54:30 51°23.293 2°52.713 8.3 318 18.1 101510 36
2010-08-06 05:54:36 51°23.314 2°52.721 8.5 317 18.1 101510 36
2010-08-06 05:54:40 51°23.329 2°52.725 7.2 281 18.1 101510 38
2010-08-06 05:54:44 51°23.343 2°52.73 8 318 18.1 101510 38
2010-08-06 05:54:50 51°23.364 2°52.736 8.5 281 18.1 101530 38
2010-08-06 05:54:55 51°23.382 2°52.742 8.4 319 18.1 101530 38
2010-08-06 05:55:00 51°23.399 2°52.747 7.6 283 18.1 101520 38
2010-08-06 05:55:05 51°23.417 2°52.754 8.1 318 18.1 101520 38
2010-08-06 05:55:10 51°23.434 2°52.758 7.9 287 18.1 101520 37
2010-08-06 05:55:16 51°23.456 2°52.766 9.1 318 18.1 101520 37
2010-08-06 05:55:20 51°23.47 2°52.77 7.3 279 18.1 101520 37
2010-08-06 05:55:25 51°23.488 2°52.775 7.7 318 18.1 101520 37
2010-08-06 05:55:30 51°23.505 2°52.781 8.3 319 18.1 101520 37
2010-08-06 05:55:35 51°23.523 2°52.785 7.4 319 18.1 101520 37
2010-08-06 05:55:40 51°23.541 2°52.792 7.1 284 18.1 101510 37
2010-08-06 05:55:44 51°23.555 2°52.795 7.3 322 18.1 101510 37
2010-08-06 05:55:50 51°23.577 2°52.803 7.7 284 18.1 101530 37
2010-08-06 05:55:55 51°23.595 2°52.808 7.3 321 18.1 101530 37
2010-08-06 05:56:00 51°23.612 2°52.814 7.7 283 18.1 101510 36
2010-08-06 05:56:05 51°23.63 2°52.819 7.6 322 18.1 101510 36
2010-08-06 05:56:10 51°23.648 2°52.825 7.2 283 18.1 101510 36
2010-08-06 05:56:16 51°23.67 2°52.832 7.8 319 18.1 101510 36
2010-08-06 05:56:20 51°23.684 2°52.835 8.2 285 18.1 101510 37
2010-08-06 05:56:25 51°23.702 2°52.84 7.8 321 18.1 101510 37
2010-08-06 05:56:30 51°23.72 2°52.847 8.7 278 18.2 101520 37
2010-08-06 05:56:35 51°23.737 2°52.851 8.3 321 18.2 101520 37
2010-08-06 05:56:40 51°23.755 2°52.858 8.5 282 18.2 101520 37
2010-08-06 05:56:45 51°23.773 2°52.862 7.5 322 18.2 101520 37
2010-08-06 05:56:50 51°23.791 2°52.869 8.4 285 18.2 101510 38
2010-08-06 05:56:55 51°23.809 2°52.873 8.8 322 18.2 101510 37
2010-08-06 05:57:00 51°23.826 2°52.879 7.1 281 18.2 101510 37
2010-08-06 05:57:05 51°23.844 2°52.885 7.1 319 18.2 101510 37
2010-08-06 05:57:10 51°23.862 2°52.891 7.5 278 18.2 101510 37
2010-08-06 05:57:15 51°23.879 2°52.896 6.8 319 18.2 101510 37
2010-08-06 05:57:20 51°23.897 2°52.902 8.8 277 18.2 101520 37
2010-08-06 05:57:25 51°23.914 2°52.907 8.5 321 18.2 101520 37
2010-08-06 05:57:30 51°23.932 2°52.913 7.3 320 18.1 101510 37
2010-08-06 05:57:36 51°23.953 2°52.919 8.1 320 18.1 101510 37
2010-08-06 05:57:40 51°23.967 2°52.925 7.5 285 18.2 101520 37
2010-08-06 05:57:45 51°23.985 2°52.93 7 320 18.2 101520 37
2010-08-06 05:57:50 51°24.002 2°52.936 7.5 284 18.2 101510 37
2010-08-06 05:57:55 51°24.02 2°52.942 7.6 321 18.2 101510 37
2010-08-06 05:58:00 51°24.038 2°52.947 7.8 284 18.2 101520 37
2010-08-06 05:58:05 51°24.056 2°52.953 7.1 319 18.2 101520 37
2010-08-06 05:58:10 51°24.073 2°52.958 8.8 282 18.2 101510 37
2010-08-06 05:58:15 51°24.091 2°52.965 8.2 319 18.2 101510 37
2010-08-06 05:58:20 51°24.109 2°52.97 7 284 18.2 101510 38
2010-08-06 05:58:25 51°24.126 2°52.978 7.5 317 18.2 101510 38
2010-08-06 05:58:30 51°24.144 2°52.982 8 285 18.2 101510 38
2010-08-06 05:58:35 51°24.162 2°52.99 7.6 318 18.2 101510 38
2010-08-06 05:58:40 51°24.18 2°52.993 6.7 277 18.2 101510 37
2010-08-06 05:58:45 51°24.197 2°53.001 7.7 319 18.2 101510 37
2010-08-06 05:58:50 51°24.215 2°53.004 7.6 283 18.2 101510 37
2010-08-06 05:58:55 51°24.233 2°53.012 7.8 320 18.2 101510 37
2010-08-06 05:59:00 51°24.251 2°53.016 8.2 284 18.2 101510 37
2010-08-06 05:59:05 51°24.268 2°53.022 7.7 321 18.2 101510 37
2010-08-06 05:59:10 51°24.286 2°53.028 7.2 283 18.1 101520 37
2010-08-06 05:59:15 51°24.303 2°53.034 7.1 318 18.1 101520 37
2010-08-06 05:59:20 51°24.321 2°53.04 7.5 277 18.2 101510 37
2010-08-06 05:59:25 51°24.338 2°53.045 7.6 322 18.2 101510 37
2010-08-06 05:59:30 51°24.356 2°53.051 8.2 321 18.1 101520 37
2010-08-06 05:59:36 51°24.377 2°53.056 8.1 319 18.1 101520 37
2010-08-06 05:59:40 51°24.391 2°53.062 7.8 285 18.2 101510 37
2010-08-06 05:59:45 51°24.409 2°53.067 7.9 317 18.2 101510 37
2010-08-06 05:59:50 51°24.426 2°53.073 7.8 284 18.2 101510 37
2010-08-06 05:59:56 51°24.447 2°53.08 8.3 317 18.2 101510 37
2010-08-06 06:00:00 51°24.461 2°53.086 7.6 283 18.2 101510 38
2010-08-06 06:00:05 51°24.478 2°53.092 7.3 318 18.2 101510 38
2010-08-06 06:00:10 51°24.496 2°53.098 7.5 283 18.2 101510 37
2010-08-06 06:00:15 51°24.513 2°53.103 8.1 319 18.2 101510 37
2010-08-06 06:00:20 51°24.531 2°53.109 7.9 284 18.2 101500 37
2010-08-06 06:00:25 51°24.548 2°53.115 7.2 320 18.2 101500 37
2010-08-06 06:00:30 51°24.566 2°53.121 7.9 284 18.2 101520 38
2010-08-06 06:00:35 51°24.584 2°53.126 7.9 319 18.2 101520 38
2010-08-06 06:00:40 51°24.601 2°53.132 7.1 280 18.2 101510 38
2010-08-06 06:00:45 51°24.619 2°53.137 7.9 321 18.2 101510 38
2010-08-06 06:00:50 51°24.636 2°53.143 8.2 284 18.2 101510 38
2010-08-06 06:00:56 51°24.658 2°53.15 8.1 320 18.2 101510 38
2010-08-06 06:01:00 51°24.672 2°53.155 7.9 280 18.2 101510 38
2010-08-06 06:01:05 51°24.69 2°53.16 7.7 319 18.2 101510 38
2010-08-06 06:01:10 51°24.708 2°53.167 8 285 18.2 101520 37
2010-08-06 06:01:15 51°24.726 2°53.172 7.9 321 18.2 101520 37
2010-08-06 06:01:20 51°24.744 2°53.179 8.7 282 18.2 101510 36
2010-08-06 06:01:25 51°24.762 2°53.184 7.8 319 18.2 101510 36
2010-08-06 06:01:30 51°24.779 2°53.191 8.1 318 18.2 101510 38
2010-08-06 06:01:36 51°24.8 2°53.197 8.4 320 18.2 101510 38
2010-08-06 06:01:40 51°24.814 2°53.202 7.5 281 18.2 101500 38
2010-08-06 06:01:45 51°24.831 2°53.207 6.6 318 18.2 101500 38
2010-08-06 06:01:50 51°24.849 2°53.214 8.1 281 18.2 101520 38
2010-08-06 06:01:56 51°24.87 2°53.22 7.6 321 18.2 101520 38
2010-08-06 06:02:00 51°24.883 2°53.225 7.5 279 18.2 101500 37
2010-08-06 06:02:05 51°24.901 2°53.23 7.6 323 18.2 101500 37
2010-08-06 06:02:10 51°24.918 2°53.237 7.7 284 18.1 101520 37
2010-08-06 06:02:15 51°24.936 2°53.242 7 319 18.1 101520 37
2010-08-06 06:02:20 51°24.953 2°53.248 8.8 279 18.2 101510 38
2010-08-06 06:02:24 51°24.967 2°53.253 8.4 319 18.2 101510 38
2010-08-06 06:02:30 51°24.988 2°53.258 8.1 320 18.2 101500 39
2010-08-06 06:02:35 51°25.006 2°53.264 7.8 320 18.2 101500 39
2010-08-06 06:02:40 51°25.024 2°53.27 7.1 283 18.2 101520 38
2010-08-06 06:02:45 51°25.041 2°53.276 8.4 320 18.2 101520 38
2010-08-06 06:02:50 51°25.058 2°53.282 8 280 18.2 101510 37
2010-08-06 06:02:55 51°25.076 2°53.287 8.1 322 18.2 101510 37
2010-08-06 06:03:00 51°25.094 2°53.293 7.6 283 18.2 101510 38
2010-08-06 06:03:05 51°25.112 2°53.298 7.5 323 18.2 101520 38
2010-08-06 06:03:10 51°25.129 2°53.305 8.4 285 18.2 101520 38
2010-08-06 06:03:15 51°25.147 2°53.31 7.1 322 18.2 101520 38
2010-08-06 06:03:20 51°25.164 2°53.316 7.8 284 18.2 101510 37
2010-08-06 06:03:25 51°25.182 2°53.321 7.9 319 18.2 101510 37
2010-08-06 06:03:30 51°25.2 2°53.327 7.7 280 18.2 101510 38
2010-08-06 06:03:36 51°25.221 2°53.334 7.5 318 18.2 101510 38
2010-08-06 06:03:40 51°25.235 2°53.338 7.7 279 18.2 101510 37
2010-08-06 06:03:45 51°25.253 2°53.343 8.9 319 18.2 101510 37
2010-08-06 06:03:50 51°25.27 2°53.349 8.4 279 18.2 101510 37
2010-08-06 06:03:55 51°25.288 2°53.354 7.9 319 18.2 101510 37
2010-08-06 06:04:00 51°25.305 2°53.361 7.9 277 18.2 101510 37
2010-08-06 06:04:05 51°25.323 2°53.365 7.6 318 18.2 101510 37
2010-08-06 06:04:10 51°25.34 2°53.372 7.5 277 18.2 101520 37
2010-08-06 06:04:16 51°25.361 2°53.376 7.8 317 18.2 101520 37
2010-08-06 06:04:20 51°25.374 2°53.383 8 277 18.2 101500 37
2010-08-06 06:04:25 51°25.392 2°53.387 7.6 316 18.2 101500 37
2010-08-06 06:04:30 51°25.409 2°53.394 7.7 320 18.1 101510 37
2010-08-06 06:04:35 51°25.427 2°53.399 7.8 317 18.1 101510 37
2010-08-06 06:04:40 51°25.444 2°53.404 7.3 278 18.2 101510 37
2010-08-06 06:04:45 51°25.461 2°53.41 7.5 317 18.2 101510 37
2010-08-06 06:04:50 51°25.479 2°53.415 7.8 277 18.2 101510 37
2010-08-06 06:04:55 51°25.496 2°53.422 8.4 318 18.2 101510 37
2010-08-06 06:05:00 51°25.513 2°53.426 8.3 285 18.2 101510 38
2010-08-06 06:05:05 51°25.531 2°53.434 7.7 318 18.2 101510 38
2010-08-06 06:05:10 51°25.548 2°53.438 7.3 279 18.2 101510 38
2010-08-06 06:05:15 51°25.566 2°53.445 7.7 318 18.2 101510 38
2010-08-06 06:05:20 51°25.583 2°53.45 7.7 284 18.2 101510 37
2010-08-06 06:05:25 51°25.601 2°53.455 8.5 321 18.2 101510 37
2010-08-06 06:05:30 51°25.618 2°53.461 8.2 319 18.2 101510 37
2010-08-06 06:05:36 51°25.639 2°53.467 7.3 318 18.2 101510 37
2010-08-06 06:05:40 51°25.653 2°53.471 7.1 284 18.2 101510 37
2010-08-06 06:05:45 51°25.67 2°53.477 7.5 317 18.2 101510 37
2010-08-06 06:05:50 51°25.688 2°53.482 7.5 280 18.2 101510 37
2010-08-06 06:05:55 51°25.705 2°53.488 7.8 319 18.2 101510 37
2010-08-06 06:06:00 51°25.723 2°53.493 7.6 277 18.2 101500 37
2010-08-06 06:06:05 51°25.741 2°53.498 8 323 18.2 101500 37
2010-08-06 06:06:10 51°25.758 2°53.505 8.6 286 18.2 101510 38
2010-08-06 06:06:16 51°25.78 2°53.51 7.4 323 18.2 101510 38
2010-08-06 06:06:20 51°25.794 2°53.515 8.3 285 18.2 101510 38
2010-08-06 06:06:24 51°25.808 2°53.518 6.9 320 18.2 101510 38
2010-08-06 06:06:30 51°25.829 2°53.526 7.2 319 18.2 101510 38
2010-08-06 06:06:35 51°25.846 2°53.531 7.4 322 18.2 101510 36
2010-08-06 06:06:40 51°25.863 2°53.537 8.7 280 18.2 101510 36
2010-08-06 06:06:45 51°25.881 2°53.542 7.5 322 18.2 101510 36
2010-08-06 06:06:50 51°25.898 2°53.548 7.7 279 18.2 101510 38
2010-08-06 06:06:55 51°25.916 2°53.553 8 323 18.2 101510 38
2010-08-06 06:07:00 51°25.934 2°53.56 8.2 281 18.2 101510 38
2010-08-06 06:07:05 51°25.951 2°53.564 7.6 321 18.2 101510 38
2010-08-06 06:07:10 51°25.969 2°53.572 8.5 286 18.2 101500 38
2010-08-06 06:07:15 51°25.987 2°53.575 7.4 320 18.2 101500 38
2010-08-06 06:07:20 51°26.004 2°53.582 8.3 283 18.2 101510 37
2010-08-06 06:07:24 51°26.018 2°53.586 7.9 319 18.2 101510 37
2010-08-06 06:07:30 51°26.039 2°53.593 7.9 321 18.2 101510 38
2010-08-06 06:07:35 51°26.057 2°53.598 8.2 318 18.2 101510 38
2010-08-06 06:07:40 51°26.074 2°53.604 7.3 286 18.2 101510 37
2010-08-06 06:07:45 51°26.092 2°53.609 7.1 318 18.2 101510 37
2010-08-06 06:07:50 51°26.109 2°53.614 7.7 277 18.2 101510 37
2010-08-06 06:07:55 51°26.126 2°53.62 7.8 317 18.2 101510 37
2010-08-06 06:08:00 51°26.144 2°53.624 7.2 279 18.2 101500 37
2010-08-06 06:08:05 51°26.161 2°53.63 7.4 321 18.2 101500 37
2010-08-06 06:08:10 51°26.179 2°53.634 7.6 277 18.2 101520 36
2010-08-06 06:08:16 51°26.2 2°53.641 7.5 321 18.2 101520 36
2010-08-06 06:08:20 51°26.214 2°53.644 7.3 282 18.2 101500 37
2010-08-06 06:08:25 51°26.232 2°53.65 8.3 323 18.2 101500 37
2010-08-06 06:08:30 51°26.25 2°53.654 7.4 321 18.2 101520 37
2010-08-06 06:08:35 51°26.267 2°53.661 7.8 323 18.2 101520 37
2010-08-06 06:08:40 51°26.285 2°53.665 7.7 284 18.2 101510 38
2010-08-06 06:08:45 51°26.302 2°53.671 8 321 18.2 101510 38
2010-08-06 06:08:50 51°26.32 2°53.675 7.8 285 18.2 101520 37
2010-08-06 06:08:55 51°26.338 2°53.681 7.3 320 18.2 101520 37
2010-08-06 06:09:00 51°26.356 2°53.686 7.8 281 18.2 101520 37
2010-08-06 06:09:05 51°26.373 2°53.691 7.9 319 18.2 101520 37
2010-08-06 06:09:10 51°26.391 2°53.696 7.1 277 18.2 101520 38
2010-08-06 06:09:15 51°26.408 2°53.7 7.9 321 18.2 101520 38
2010-08-06 06:09:20 51°26.425 2°53.707 7.8 283 18.2 101510 36
2010-08-06 06:09:25 51°26.443 2°53.711 7.8 321 18.2 101510 36
2010-08-06 06:09:30 51°26.46 2°53.717 6.9 277 18.2 101500 37
2010-08-06 06:09:35 51°26.478 2°53.722 7.6 320 18.2 101500 37
2010-08-06 06:09:40 51°26.496 2°53.727 7.2 285 18.2 101500 38
2010-08-06 06:09:45 51°26.514 2°53.733 7.2 321 18.2 101500 38
2010-08-06 06:09:50 51°26.531 2°53.738 7.3 283 18.2 101530 37
2010-08-06 06:09:55 51°26.549 2°53.743 7.6 319 18.2 101530 37
2010-08-06 06:10:00 51°26.566 2°53.748 7.9 286 18.2 101510 38
2010-08-06 06:10:05 51°26.583 2°53.754 8.3 320 18.2 101510 38
2010-08-06 06:10:10 51°26.601 2°53.758 6.9 279 18.2 101510 37
2010-08-06 06:10:16 51°26.622 2°53.765 7.6 319 18.2 101510 37
2010-08-06 06:10:20 51°26.636 2°53.769 7.6 280 18.2 101510 38
2010-08-06 06:10:25 51°26.654 2°53.775 7.9 320 18.2 101510 38
2010-08-06 06:10:30 51°26.672 2°53.78 8.2 280 18.2 101510 37
2010-08-06 06:10:35 51°26.69 2°53.784 7.3 321 18.2 101510 37
2010-08-06 06:10:40 51°26.707 2°53.79 8 283 18.2 101520 38
2010-08-06 06:10:45 51°26.725 2°53.794 7.9 320 18.2 101520 38
2010-08-06 06:10:50 51°26.743 2°53.8 7.8 279 18.2 101510 37
2010-08-06 06:10:56 51°26.764 2°53.806 7.7 321 18.2 101510 37
2010-08-06 06:11:00 51°26.778 2°53.81 7 285 18.2 101510 37
2010-08-06 06:11:05 51°26.796 2°53.815 6.7 319 18.2 101510 37
2010-08-06 06:11:10 51°26.814 2°53.82 7.1 280 18.2 101500 37
2010-08-06 06:11:15 51°26.831 2°53.826 7.4 322 18.2 101500 37
2010-08-06 06:11:20 51°26.849 2°53.83 8.5 284 18.2 101510 37
2010-08-06 06:11:25 51°26.867 2°53.836 8 323 18.2 101510 37
2010-08-06 06:11:30 51°26.885 2°53.84 7.4 322 18.2 101510 38
2010-08-06 06:11:35 51°26.902 2°53.846 7.2 321 18.2 101510 38
2010-08-06 06:11:40 51°26.92 2°53.851 7.4 278 18.2 101520 37
2010-08-06 06:11:45 51°26.937 2°53.856 7.7 323 18.2 101520 37
2010-08-06 06:11:50 51°26.955 2°53.861 7.3 283 18.2 101510 38
2010-08-06 06:11:55 51°26.973 2°53.865 7.1 321 18.2 101510 38
2010-08-06 06:12:00 51°26.99 2°53.871 7.7 283 18.2 101520 36
2010-08-06 06:12:05 51°27.007 2°53.876 7.3 322 18.2 101520 36
2010-08-06 06:12:10 51°27.024 2°53.882 8.1 284 18.2 101510 38
2010-08-06 06:12:16 51°27.045 2°53.888 7.4 322 18.2 101510 38
2010-08-06 06:12:20 51°27.06 2°53.892 7.3 284 18.2 101510 38
2010-08-06 06:12:24 51°27.074 2°53.896 8.1 321 18.2 101510 38
2010-08-06 06:12:30 51°27.095 2°53.903 7.4 321 18.2 101520 38
2010-08-06 06:12:35 51°27.113 2°53.908 7.4 322 18.2 101520 38
2010-08-06 06:12:40 51°27.131 2°53.914 6.8 281 18.2 101510 38
2010-08-06 06:12:45 51°27.149 2°53.918 7.3 321 18.2 101510 38
2010-08-06 06:12:50 51°27.167 2°53.925 7.4 281 18.2 101500 37
2010-08-06 06:12:56 51°27.188 2°53.93 6.6 321 18.2 101500 37
2010-08-06 06:13:00 51°27.202 2°53.935 7.6 284 18.2 101520 37
2010-08-06 06:13:05 51°27.219 2°53.94 8.1 319 18.2 101520 37
2010-08-06 06:13:10 51°27.237 2°53.945 7.2 285 18.2 101510 37
2010-08-06 06:13:15 51°27.255 2°53.951 7.8 322 18.2 101520 38
2010-08-06 06:13:20 51°27.273 2°53.955 8.2 283 18.2 101520 38
2010-08-06 06:13:25 51°27.291 2°53.96 8.2 322 18.2 101520 38
2010-08-06 06:13:30 51°27.309 2°53.965 7.6 319 18.3 101520 38
2010-08-06 06:13:35 51°27.327 2°53.97 7.9 322 18.3 101520 38
2010-08-06 06:13:40 51°27.345 2°53.975 7.3 278 18.3 101520 39
2010-08-06 06:13:45 51°27.363 2°53.98 7.2 319 18.3 101520 39
2010-08-06 06:13:50 51°27.38 2°53.986 6.6 283 18.3 101510 39
2010-08-06 06:13:55 51°27.398 2°53.991 6.8 323 18.3 101510 39
2010-08-06 06:14:00 51°27.415 2°53.997 6.8 276 18.2 101510 37
2010-08-06 06:14:05 51°27.433 2°54.002 6.6 325 18.2 101520 38
2010-08-06 06:14:10 51°27.45 2°54.008 8 277 18.2 101520 38
2010-08-06 06:14:15 51°27.468 2°54.013 7.5 323 18.2 101520 38
2010-08-06 06:14:20 51°27.486 2°54.019 8.1 284 18.2 101520 38
2010-08-06 06:14:25 51°27.503 2°54.023 7.4 324 18.2 101520 38
2010-08-06 06:14:30 51°27.52 2°54.03 8.1 284 18.3 101510 39
2010-08-06 06:14:35 51°27.537 2°54.033 7.9 324 18.3 101510 39
2010-08-06 06:14:40 51°27.555 2°54.039 8.1 278 18.3 101510 38
2010-08-06 06:14:45 51°27.573 2°54.043 8.3 323 18.3 101510 38
2010-08-06 06:14:50 51°27.59 2°54.049 7.3 280 18.3 101510 38
2010-08-06 06:14:56 51°27.612 2°54.056 7.6 322 18.3 101510 38
2010-08-06 06:15:00 51°27.626 2°54.059 7.4 283 18.3 101520 39
2010-08-06 06:15:05 51°27.643 2°54.066 7.1 320 18.3 101520 39
2010-08-06 06:15:10 51°27.661 2°54.069 7.7 284 18.2 101520 39
2010-08-06 06:15:15 51°27.678 2°54.077 7.3 320 18.2 101520 39
2010-08-06 06:15:20 51°27.696 2°54.079 7.1 285 18.3 101510 39
2010-08-06 06:15:25 51°27.713 2°54.087 7.1 319 18.3 101510 39
2010-08-06 06:15:30 51°27.731 2°54.09 7.4 319 18.2 101520 38
2010-08-06 06:15:36 51°27.752 2°54.099 7.5 320 18.2 101520 38
2010-08-06 06:15:40 51°27.766 2°54.102 7.1 279 18.2 101520 38
2010-08-06 06:15:45 51°27.783 2°54.108 8.3 322 18.2 101520 38
2010-08-06 06:15:50 51°27.801 2°54.114 6.5 283 18.2 101510 38
2010-08-06 06:15:55 51°27.818 2°54.119 7.2 321 18.2 101510 38
2010-08-06 06:16:00 51°27.835 2°54.125 8.6 284 18.2 101520 38
2010-08-06 06:16:05 51°27.852 2°54.131 7.2 321 18.2 101520 38
2010-08-06 06:16:10 51°27.869 2°54.137 8.2 282 18.2 101520 39
2010-08-06 06:16:15 51°27.886 2°54.142 7.9 320 18.2 101520 39
2010-08-06 06:16:20 51°27.904 2°54.15 7.1 281 18.2 101530 38
2010-08-06 06:16:25 51°27.921 2°54.155 6.8 321 18.2 101530 38
2010-08-06 06:16:30 51°27.938 2°54.161 6.6 285 18.2 101520 38
2010-08-06 06:16:35 51°27.955 2°54.166 6.6 322 18.2 101520 38
2010-08-06 06:16:40 51°27.972 2°54.171 6.7 281 18.2 101500 39
2010-08-06 06:16:45 51°27.988 2°54.177 6.5 319 18.2 101500 39
2010-08-06 06:16:50 51°28.005 2°54.183 7.6 286 18.1 101520 38
2010-08-06 06:16:56 51°28.027 2°54.189 7 321 18.1 101520 38
2010-08-06 06:17:00 51°28.041 2°54.193 7.6 284 18.1 101520 38
2010-08-06 06:17:04 51°28.055 2°54.198 7.6 323 18.1 101520 38
2010-08-06 06:17:10 51°28.075 2°54.205 7.1 286 18.2 101520 38
2010-08-06 06:17:15 51°28.093 2°54.21 7.5 323 18.2 101520 38
2010-08-06 06:17:20 51°28.11 2°54.216 8.1 283 18.2 101520 37
2010-08-06 06:17:25 51°28.127 2°54.221 7.6 323 18.2 101520 37
2010-08-06 06:17:30 51°28.144 2°54.229 7.4 323 18.2 101510 38
2010-08-06 06:17:36 51°28.165 2°54.234 7.6 322 18.2 101510 38
2010-08-06 06:17:40 51°28.179 2°54.239 7.2 285 18.2 101530 38
2010-08-06 06:17:45 51°28.196 2°54.244 7 321 18.2 101530 38
2010-08-06 06:17:50 51°28.213 2°54.251 7.4 282 18.2 101510 38
2010-08-06 06:17:55 51°28.23 2°54.255 7.1 322 18.1 101520 37
2010-08-06 06:18:00 51°28.247 2°54.263 6.4 278 18.1 101520 37
2010-08-06 06:18:05 51°28.264 2°54.269 6.2 322 18.1 101520 37
2010-08-06 06:18:10 51°28.281 2°54.276 7 283 18.1 101520 37
2010-08-06 06:18:15 51°28.298 2°54.283 8.1 322 18.1 101520 37
2010-08-06 06:18:20 51°28.315 2°54.288 7.2 277 18.1 101520 37
2010-08-06 06:18:25 51°28.332 2°54.294 8.3 323 18.1 101520 37
2010-08-06 06:18:30 51°28.35 2°54.3 7.5 324 18.1 101520 37
2010-08-06 06:18:35 51°28.367 2°54.307 7.2 321 18.1 101520 37
2010-08-06 06:18:40 51°28.384 2°54.312 7.4 286 18.2 101520 38
2010-08-06 06:18:45 51°28.401 2°54.318 7.4 323 18.2 101520 38
2010-08-06 06:18:50 51°28.418 2°54.324 7.5 278 18.2 101520 38
2010-08-06 06:18:56 51°28.439 2°54.331 7.3 319 18.2 101520 38
2010-08-06 06:19:00 51°28.452 2°54.335 8.1 277 18.2 101530 39
2010-08-06 06:19:05 51°28.469 2°54.342 8.1 319 18.2 101530 39
2010-08-06 06:19:10 51°28.485 2°54.347 6.8 283 18.2 101520 39
2010-08-06 06:19:15 51°28.502 2°54.354 6.8 320 18.2 101520 39
2010-08-06 06:19:20 51°28.519 2°54.358 7.4 284 18.2 101510 39
2010-08-06 06:19:25 51°28.535 2°54.365 7.3 321 18.2 101510 39
2010-08-06 06:19:30 51°28.553 2°54.37 6.8 281 18.2 101510 39
2010-08-06 06:19:36 51°28.572 2°54.378 6.8 320 18.2 101510 39
2010-08-06 06:19:40 51°28.586 2°54.382 6.5 285 18.2 101520 39
2010-08-06 06:19:45 51°28.605 2°54.389 7.3 321 18.2 101520 39
2010-08-06 06:19:50 51°28.622 2°54.395 6.8 285 18.2 101520 40
2010-08-06 06:19:55 51°28.639 2°54.402 7.9 321 18.2 101520 40
2010-08-06 06:20:00 51°28.657 2°54.407 7.4 282 18.2 101530 37
2010-08-06 06:20:05 51°28.673 2°54.415 7.5 320 18.2 101530 37
2010-08-06 06:20:10 51°28.691 2°54.419 7 284 18.2 101530 39
2010-08-06 06:20:15 51°28.708 2°54.427 7.5 320 18.2 101530 39
2010-08-06 06:20:20 51°28.725 2°54.431 7 281 18.2 101520 39
2010-08-06 06:20:25 51°28.742 2°54.44 8.2 320 18.2 101520 39
2010-08-06 06:20:30 51°28.76 2°54.444 7 320 18.2 101530 39
2010-08-06 06:20:35 51°28.777 2°54.451 7.6 323 18.2 101530 39
2010-08-06 06:20:40 51°28.794 2°54.457 7.6 285 18.2 101520 40
2010-08-06 06:20:45 51°28.812 2°54.461 6.6 325 18.2 101520 40
2010-08-06 06:20:50 51°28.829 2°54.467 7.5 285 18.2 101520 38
2010-08-06 06:20:55 51°28.847 2°54.47 6.6 327 18.2 101520 38
2010-08-06 06:21:00 51°28.864 2°54.475 7.5 280 18.2 101530 38
2010-08-06 06:21:05 51°28.881 2°54.478 8.1 320 18.2 101530 38
2010-08-06 06:21:10 51°28.899 2°54.482 7.8 280 18.1 101530 38
2010-08-06 06:21:15 51°28.917 2°54.484 6.8 322 18.1 101530 38
2010-08-06 06:21:20 51°28.934 2°54.489 7.3 284 18.1 101520 38
2010-08-06 06:21:25 51°28.952 2°54.491 7.8 320 18.1 101520 38
2010-08-06 06:21:30 51°28.969 2°54.494 7.6 321 18.1 101520 39
2010-08-06 06:21:35 51°28.987 2°54.498 7 323 18.1 101520 39
2010-08-06 06:21:40 51°29.004 2°54.5 7.4 279 18.1 101530 38
2010-08-06 06:21:45 51°29.022 2°54.503 7.5 321 18.1 101530 38
2010-08-06 06:21:50 51°29.04 2°54.505 7.2 280 18.1 101520 38
2010-08-06 06:21:55 51°29.057 2°54.509 7.4 322 18.1 101520 38
2010-08-06 06:22:00 51°29.075 2°54.512 7.2 283 18.1 101520 39
2010-08-06 06:22:05 51°29.093 2°54.517 7.4 321 18.1 101520 39
2010-08-06 06:22:10 51°29.109 2°54.518 6.9 277 18.1 101520 38
2010-08-06 06:22:15 51°29.127 2°54.522 7.8 321 18.1 101520 38
2010-08-06 06:22:20 51°29.145 2°54.523 7.1 284 18.1 101520 38
2010-08-06 06:22:25 51°29.163 2°54.528 8.2 322 18.1 101520 38
2010-08-06 06:22:30 51°29.181 2°54.529 7.7 321 18.1 101530 38
2010-08-06 06:22:35 51°29.199 2°54.533 8.2 323 18.1 101530 38
2010-08-06 06:22:40 51°29.217 2°54.536 7 277 18.1 101530 37
2010-08-06 06:22:45 51°29.235 2°54.539 7.4 322 18.1 101530 37
2010-08-06 06:22:50 51°29.253 2°54.542 8.4 282 18.2 101520 38
2010-08-06 06:22:55 51°29.271 2°54.545 7.7 321 18.2 101520 38
2010-08-06 06:23:00 51°29.287 2°54.546 7.6 283 18.2 101520 39
2010-08-06 06:23:05 51°29.305 2°54.551 7.5 320 18.2 101520 39
2010-08-06 06:23:10 51°29.323 2°54.551 7.3 285 18.2 101520 39
2010-08-06 06:23:15 51°29.341 2°54.555 7.1 320 18.2 101520 39
2010-08-06 06:23:20 51°29.361 2°54.557 7.7 280 18.1 101530 38
2010-08-06 06:23:25 51°29.379 2°54.561 7.3 319 18.1 101530 38
2010-08-06 06:23:30 51°29.397 2°54.562 7.9 319 18.1 101540 38
2010-08-06 06:23:35 51°29.416 2°54.566 6.9 320 18.1 101540 38
2010-08-06 06:23:40 51°29.434 2°54.567 7.3 283 18.1 101520 38
2010-08-06 06:23:45 51°29.452 2°54.571 7 320 18.1 101520 38
2010-08-06 06:23:50 51°29.47 2°54.572 7.6 283 18.1 101530 39
2010-08-06 06:23:55 51°29.488 2°54.576 8.8 323 18.1 101530 39
2010-08-06 06:24:00 51°29.506 2°54.578 8 279 18.1 101530 38
2010-08-06 06:24:05 51°29.523 2°54.581 8.4 323 18.1 101530 38
2010-08-06 06:24:10 51°29.541 2°54.583 7.4 277 18.2 101530 39
2010-08-06 06:24:16 51°29.563 2°54.586 7.6 324 18.2 101530 39
2010-08-06 06:24:20 51°29.577 2°54.589 7.8 284 18.2 101520 40
2010-08-06 06:24:25 51°29.595 2°54.592 8 323 18.2 101520 40
2010-08-06 06:24:30 51°29.613 2°54.595 8.3 323 18.2 101530 40
2010-08-06 06:24:35 51°29.631 2°54.598 7 323 18.2 101530 40
2010-08-06 06:24:40 51°29.648 2°54.601 7.9 283 18.2 101530 39
2010-08-06 06:24:45 51°29.666 2°54.605 8.1 324 18.2 101530 39
2010-08-06 06:24:50 51°29.684 2°54.608 8.3 284 18.2 101520 39
2010-08-06 06:24:55 51°29.703 2°54.61 7.9 324 18.2 101520 39
2010-08-06 06:25:00 51°29.72 2°54.614 7.9 284 18.2 101530 39
2010-08-06 06:25:05 51°29.738 2°54.617 7.9 321 18.2 101530 39
2010-08-06 06:25:10 51°29.756 2°54.621 8.2 284 18.2 101530 39
2010-08-06 06:25:15 51°29.774 2°54.624 7.6 323 18.2 101530 39
2010-08-06 06:25:20 51°29.792 2°54.627 7.3 278 18.2 101530 38
2010-08-06 06:25:26 51°29.814 2°54.631 7.7 322 18.2 101520 39
2010-08-06 06:25:31 51°29.832 2°54.636 7.6 -999 18.2 101520 39
2010-08-06 06:25:36 51°29.85 2°54.636 7.3 323 18.2 101520 39
2010-08-06 06:25:40 51°29.864 2°54.641 7.5 277 18.2 101520 39
2010-08-06 06:25:46 51°29.886 2°54.643 7.9 321 18.2 101520 40
2010-08-06 06:25:50 51°29.9 2°54.647 6.7 277 18.2 101520 40
2010-08-06 06:25:55 51°29.918 2°54.651 7.3 321 18.2 101520 40
2010-08-06 06:26:00 51°29.936 2°54.653 7.4 284 18.2 101520 39
2010-08-06 06:26:06 51°29.957 2°54.658 7.8 320 18.2 101520 39
2010-08-06 06:26:10 51°29.972 2°54.659 7.2 284 18.1 101520 39
2010-08-06 06:26:16 51°29.993 2°54.664 7.2 321 18.1 101520 39
2010-08-06 06:26:20 51°30.008 2°54.666 9.1 286 18.1 101530 39
2010-08-06 06:26:26 51°30.029 2°54.671 8.8 322 18.1 101530 39
2010-08-06 06:26:30 51°30.044 2°54.673 7.2 322 18.1 101530 39
2010-08-06 06:26:37 51°30.069 2°54.678 7.9 323 18.1 101530 39
2010-08-06 06:26:40 51°30.08 2°54.68 8 281 18.1 101530 39
2010-08-06 06:26:46 51°30.101 2°54.684 8.2 322 18.1 101530 39
2010-08-06 06:26:50 51°30.116 2°54.686 7 282 18.1 101520 40
2010-08-06 06:26:56 51°30.138 2°54.691 7.9 321 18.1 101520 40